Weather in Staro-Volzhsky

Russia / Astrakhan Oblast     45°51′32″N   47°41′30″E
temp.,
°C
wind,
m/s
gust,
m/s
humid.,
%
clouds,
%
prec.,
mm/h
press.,
hPa
HPBL,
m
1 august, sun
sun101:00+25s335899 0.0 101139
04:00+24ese226415 0.0 101113
07:00+26ese235611 0.0 1011136
10:00+31sse45395 0.1 1012927
13:00+32se333813 2.7 1012819
16:00+33sse553020 2.7 1011899
19:00+30sse45380 0.0 1011320
22:00+26sse33570 0.0 101127
2 august, mon
mon201:00+25se115961 0.0 101111
04:00+26e224979 0.0 101131
07:00+26ene23435 0.0 101279
10:00+34se4524100 0.0 1012818
13:00+36sse4519100 0.0 1012923
16:00+36se5517100 0.0 10101018
19:00+31se453826 0.0 1011255
22:00+26se336354 0.0 101136
3 august, tue
tue301:00+26sse336214 0.0 101025
04:00+25e22506 0.0 101011
07:00+28ene11383 0.0 101111
10:00+36ese35160 0.0 1012802
13:00+38sse56140 0.0 10111230
16:00+37sse45140 0.0 1010848
19:00+33se35250 0.0 1010216
22:00+28sse33490 0.0 101139
4 august, wed
wed401:00+27s44600 0.0 101049
04:00+25sw22560 0.0 101011
07:00+28s11440 0.0 101116
10:00+35s33230 0.0 1011651
13:00+37sse55170 0.0 1011940
16:00+36sse55195 0.0 1010597
19:00+31sse58395 0.0 1010249
22:00+27ssw34595 0.0 101162
5 august, thu
thu501:00+26w224477 0.0 101111
04:00+25e11405 0.0 101011
07:00+27nne243564 0.0 1011104
10:00+33n8932100 0.0 10121275
13:00+33n9933100 0.0 10131360
16:00+33n76325 0.0 10131287
19:00+32n24340 0.0 1012863
22:00+27n334410 0.0 101337